EA5SW-13 Weather Reports


time (UTC)temp
C
wind
direction
speed
KPH
gust
KPH
rain 1hr
cm
rain 24hr
cm
rain mn
cm
humidity
%
barometer
mb
20221208000029 12 0.0 0.0 0.00 0.00 0.00 89 1010.9
20221207235026 12 0.0 0.0 0.00 0.00 0.00 89 1011.1
20221207234043 12 0.0 0.0 0.00 0.00 0.00 89 1011.1
20221207233020 12 45 0.0 1.6 0.00 0.00 0.00 89 1011.2
20221207232017 12 270 0.0 1.6 0.00 0.00 0.00 88 1011.1
20221207231114 12 315 0.0 1.6 0.00 0.00 0.00 88 1011.2
20221207230116 12 0.0 0.0 0.00 0.00 0.00 88 1011.3
20221207225108 12 0.0 0.0 0.00 0.00 0.00 88 1011.2
20221207224105 12 0.0 0.0 0.00 0.00 0.00 88 1011.1
20221207223123 12 0.0 0.0 0.00 0.00 0.00 88 1011.2
20221207222059 12 0.0 0.0 0.00 0.00 0.00 88 1011.4
20221207221056 12 0 0.0 0.0 0.00 0.00 0.00 87 1011.4
20221207220053 13 0.0 0.0 0.00 0.00 0.00 87 1011.4
20221207215050 13 0.0 0.0 0.00 0.00 0.00 87 1011.4
20221207214047 13 0.0 0.0 0.00 0.00 0.00 87 1011.5
20221207213046 13 0.0 0.0 0.00 0.00 0.00 86 1011.7
20221207212101 13 0.0 0.0 0.00 0.00 0.00 86 1011.7
20221207211038 13 0.0 0.0 0.00 0.00 0.00 86 1011.7
20221207210035 13 0.0 0.0 0.00 0.00 0.00 86 1011.7
20221207205032 13 0.0 0.0 0.00 0.00 0.00 86 1011.8
20221207204110 14 0.0 0.0 0.00 0.00 0.00 86 1011.8
20221207203026 14 0.0 0.0 0.00 0.00 0.00 86 1011.8
20221207202044 14 0.0 0.0 0.00 0.00 0.00 86 1011.7
20221207201020 14 0.0 0.0 0.00 0.00 0.00 86 1011.8
20221207200016 14 0.0 0.0 0.00 0.00 0.00 85 1011.7
20221207195114 15 0.0 0.0 0.00 0.00 0.00 85 1011.6
20221207194111 15 180 0.0 3.2 0.00 0.00 0.00 85 1011.6
20221207193107 15 172 0.0 3.2 0.00 0.00 0.00 84 1011.6
20221207192104 15 240 0.0 4.8 0.00 0.00 0.00 83 1011.6
20221207191121 14 0.0 0.0 0.00 0.00 0.00 83 1011.6
20221207190118 14 0.0 0.0 0.00 0.00 0.00 83 1011.6
20221207185055 15 0.0 0.0 0.00 0.00 0.00 83 1011.5
20221207184112 15 0.0 0.0 0.00 0.00 0.00 83 1011.4
20221207183049 15 0.0 0.0 0.00 0.00 0.00 84 1011.6
20221207182106 15 0.0 0.0 0.00 0.00 0.00 84 1011.6
20221207181043 15 0.0 0.0 0.00 0.00 0.00 83 1011.5
20221207180040 15 0.0 0.0 0.00 0.00 0.00 83 1011.6
20221207175117 15 0.0 0.0 0.00 0.00 0.00 82 1011.6
20221207174033 15 0.0 0.0 0.00 0.00 0.00 82 1011.4
20221207173031 15 0.0 0.0 0.00 0.00 0.00 82 1011.5
20221207172028 15 0.0 0.0 0.00 0.00 0.00 82 1011.5
20221207171025 15 0.0 0.0 0.00 0.00 0.00 81 1011.5
20221207170022 15 0.0 0.0 0.00 0.00 0.00 81 1011.5
20221207165019 15 0.0 0.0 0.00 0.00 0.00 81 1011.6
20221207164036 15 180 0.0 1.6 0.00 0.00 0.00 81 1011.5
20221207163153 15 90 0.0 1.6 0.00 0.00 0.00 80 1011.6
20221207162110 16 0.0 0.0 0.00 0.00 0.00 80 1011.6
20221207161107 16 180 0.0 3.2 0.00 0.00 0.00 78 1011.6
20221207160124 16 217 0.0 3.2 0.00 0.00 0.00 77 1011.6
20221207155121 16 0.0 0.0 0.00 0.00 0.00 76 1011.5
20221207154059 16 180 0.0 1.6 0.00 0.00 0.00 74 1011.5
20221207153135 16 0.0 0.0 0.00 0.00 0.00 73 1011.4
20221207152052 16 315 0.0 1.6 0.00 0.00 0.00 72 1011.6
20221207151049 17 0.0 0.0 0.00 0.00 0.00 69 1011.7
20221207150046 17 0.0 0.0 0.00 0.00 0.00 68 1011.6
20221207145103 17 0.0 0.0 0.00 0.00 0.00 67 1011.6
20221207144100 18 135 0.0 1.6 0.00 0.00 0.00 66 1011.5
20221207143037 18 0.0 0.0 0.00 0.00 0.00 66 1011.6
20221207142034 18 33 0.0 1.6 0.00 0.00 0.00 66 1011.6
20221207141033 18 0.0 0.0 0.00 0.00 0.00 66 1011.7
20221207140027 18 0.0 0.0 0.00 0.00 0.00 66 1011.7
20221207135024 18 0.0 0.0 0.00 0.00 0.00 65 1011.8
20221207134022 18 254 0.0 3.2 0.00 0.00 0.00 65 1011.9
20221207133018 18 0.0 0.0 0.00 0.00 0.00 65 1011.9
20221207132015 18 0 0.0 0.0 0.00 0.00 0.00 65 1012.1
20221207131112 18 270 0.0 0.0 0.00 0.00 0.00 66 1012.3
20221207130110 18 0.0 0.0 0.00 0.00 0.00 66 1012.4
20221207125106 18 0.0 0.0 0.00 0.00 0.00 66 1012.6
20221207124103 18 0.0 0.0 0.00 0.00 0.00 67 1012.7
20221207123100 17 0.0 0.0 0.00 0.00 0.00 68 1012.9
20221207122057 17 291 0.0 3.2 0.00 0.00 0.00 69 1013.0
20221207121054 17 260 0.0 3.2 0.00 0.00 0.00 69 1013.1
20221207120111 17 0.0 0.0 0.00 0.00 0.00 70 1013.2
20221207115108 17 0.0 0.0 0.00 0.00 0.00 70 1013.3
20221207114045 17 0.0 0.0 0.00 0.00 0.00 72 1013.4
20221207113042 17 225 0.0 1.6 0.00 0.00 0.00 71 1013.5
20221207112040 17 0.0 0.0 0.00 0.00 0.00 70 1013.6
20221207111036 17 270 0.0 1.6 0.00 0.00 0.00 73 1013.9
20221207110033 16 0.0 0.0 0.00 0.00 0.00 74 1014.0
20221207105030 16 16 0.0 3.2 0.00 0.00 0.00 73 1014.2
20221207104027 16 0.0 0.0 0.00 0.00 0.00 73 1014.3
20221207103024 16 18 0.0 3.2 0.00 0.00 0.00 73 1014.4
20221207102021 16 225 0.0 1.6 0.00 0.00 0.00 74 1014.5
20221207101019 15 0.0 0.0 0.00 0.00 0.00 74 1014.6
20221207100015 15 214 0.0 3.2 0.00 0.00 0.00 75 1014.7
20221207095112 15 111 1.6 3.2 0.00 0.00 0.00 76 1014.7
20221207094110 14 225 0.0 1.6 0.00 0.00 0.00 77 1014.8
20221207093127 14 315 0.0 1.6 0.00 0.00 0.00 78 1014.6
20221207092104 13 0.0 0.0 0.00 0.00 0.00 80 1014.7
20221207091101 13 0.0 0.0 0.00 0.00 0.00 81 1014.6
20221207090058 13 0.0 0.0 0.00 0.00 0.00 82 1014.6
20221207085055 13 178 0.0 3.2 0.00 0.00 0.00 83 1014.5
20221207084052 13 135 0.0 1.6 0.00 0.00 0.00 84 1014.4
20221207083049 13 293 0.0 3.2 0.00 0.00 0.00 85 1014.4
20221207082046 12 33 1.6 3.2 0.00 0.00 0.00 86 1014.3
20221207081042 12 315 0.0 1.6 0.00 0.00 0.00 86 1014.1
20221207080039 12 22 0.0 1.6 0.00 0.00 0.00 87 1014.1
20221207075036 12 0.0 0.0 0.00 0.00 0.00 87 1014.1
20221207074033 12 0.0 0.0 0.00 0.00 0.00 87 1013.9
20221207073030 12 0.0 0.0 0.00 0.00 0.00 87 1014.0
20221207072048 12 0.0 0.0 0.00 0.00 0.00 87 1013.9
20221207071024 12 0.0 0.0 0.00 0.00 0.00 88 1014.0
20221207070021 12 0.0 1.6 0.00 0.00 0.00 91 1014.0
20221207065018 12 0.0 0.0 0.00 0.00 0.00 92 1014.1
20221207064015 12 0.0 0.0 0.00 0.00 0.00 92 1014.0
20221207063154 12 0.0 0.0 0.00 0.00 0.00 92 1014.0
20221207062110 12 0.0 0.0 0.00 0.00 0.00 92 1014.0
20221207061106 12 0.0 0.0 0.00 0.00 0.00 92 1013.9
20221207060103 12 0.0 0.0 0.00 0.00 0.00 92 1013.8
20221207055100 11 0.0 0.0 0.00 0.00 0.00 92 1013.8
20221207054059 11 0.0 0.0 0.00 0.00 0.00 92 1013.8
20221207053054 11 0.0 0.0 0.00 0.00 0.00 92 1013.8
20221207052051 11 0.0 0.0 0.00 0.00 0.00 92 1013.7
20221207051048 11 0.0 0.0 0.00 0.00 0.00 91 1013.8
20221207050045 11 0.0 0.0 0.00 0.00 0.00 91 1013.8
20221207045042 11 0.0 0.0 0.00 0.00 0.00 91 1013.8
20221207044039 11 0.0 0.0 0.00 0.00 0.00 91 1013.7
20221207043036 11 0.0 0.0 0.00 0.00 0.00 91 1013.8
20221207042054 11 0.0 0.0 0.00 0.00 0.00 91 1013.8
20221207041030 11 315 0.0 1.6 0.00 0.00 0.00 90 1013.7
20221207040027 11 0.0 0.0 0.00 0.00 0.00 90 1013.8
20221207035024 12 0.0 0.0 0.00 0.00 0.00 90 1013.9
20221207034021 12 0.0 0.0 0.00 0.00 0.00 90 1014.0
20221207033018 12 0.0 0.0 0.00 0.00 0.00 86 1014.1
20221207032115 12 0.0 0.0 0.00 0.00 0.00 86 1014.0
20221207031112 12 0.0 0.0 0.00 0.00 0.00 87 1014.0
20221207030129 12 0.0 0.0 0.00 0.00 0.00 87 1014.1
20221207025106 12 0.0 0.0 0.00 0.00 0.00 86 1014.2
20221207024123 12 0.0 0.0 0.00 0.00 0.00 86 1014.2
20221207023100 12 0.0 0.0 0.00 0.00 0.00 87 1014.3
20221207022057 12 0.0 0.0 0.00 0.00 0.00 87 1014.5
20221207021054 12 0.0 0.0 0.00 0.00 0.00 87 1014.6
20221207020111 12 0.0 0.0 0.00 0.00 0.00 87 1014.5
20221207015108 12 0.0 0.0 0.00 0.00 0.00 87 1014.5
20221207014044 12 0.0 0.0 0.00 0.00 0.00 87 1014.5
20221207013101 12 0.0 0.0 0.00 0.00 0.00 87 1014.5
20221207012038 12 0.0 0.0 0.00 0.00 0.00 87 1014.6
20221207011035 12 0.0 0.0 0.00 0.00 0.00 87 1014.7
20221207010032 12 0.0 0.0 0.00 0.00 0.00 87 1014.8
20221207005029 12 0.0 0.0 0.00 0.00 0.00 87 1014.8
20221207004027 12 0.0 0.0 0.00 0.00 0.00 87 1014.9
20221207003023 12 0.0 0.0 0.00 0.00 0.00 87 1015.0
20221207002021 12 0.0 0.0 0.00 0.00 0.00 87 1015.1
20221207001018 12 0.0 0.0 0.00 0.00 0.00 87 1015.2